Location: Gollag?dem
(16.8053°N, 80.8024°E)
Time: 09:29:20
(UTC+00:00)

NOSS 3-4 (C) - Pass Details

Date: 13 August 2020
Orbit: 885 x 1327 km, 63.4° (Epoch: 18 September)

Event Time Altitude Azimuth Distance (km) Brightness Sun altitude
Exits shadow 23:37:23 12° 233° (SW) 2,426 5.0 -10.7°
Maximum altitude 23:42:22 37° 298° (WNW) 1,345 3.9 -9.5°
Drops below altitude 10° 23:47:46 10° 5° (N) 2,573 6.0 -8.3°
Sets 23:50:32 0° 13° (NNE) 3,549 6.9 -7.7°
